ONEWEB-0102 (47258 NORAD) Tracking and Keplerian Element Data

This shows tracking and keplerian element data for the satellite.

Feedback or suggestion? Click here.




ElementValue
Catalog47258
NameONEWEB-0102
Epoch Orbit172
Epoch Day62.91667824
Epoch Year2021
RAAN15.6653
Inclination87.6525
Eccentricity0.0010475
Argument of Perigee30.1102
Mean Anonmoly164.4291
Mean Motion13.96968375
Decay Rate-0.00028121
L11 47258U 20100A 21062.91667824 -.00028121 00000-0 -20279-1 0 9990
L22 47258 87.6525 15.6653 0010475 30.1102 164.4291 13.96968375 1725

Live tracking and technical data element details for ONEWEB-0102 (NORAD 47258). ONEWEB-0102 can be tracked NOW for your location showing map with azimuth and elevation plus other details from your city location.

Track the satellite on the map from your city or location and see movement details for azimuth, elevation, latitude, longitude, range, height, and movement on the map or in text.







IsCatalogInMostPopularTable: catalog: 47258, numindb: 26
Update: records affected: 1



GetName: 47258 ONEWEB-0102

Hit Count: updated at: Fri, 05 Mar 2021 07:05:54 GMT